Showing default

NUSAT-45 (UZMASAT-1), 62640

Orbit data source: Space-Track

NUSAT-45 (UZMASAT-1), 62640 is an Argentinean payload satellite in SSO that was launched on Tue, 14 Jan 2025 UTC via an FALCON 9 launch vehicle from the Air Force Western Test Range (AFWTR). Payload-class satellites include a variety of spacecraft equipped with specific instruments for various scientific and technological missions. These include communications satellites like Starlink; space stations such as the ISS; scientific satellites like the Hubble; Earth observation satellites from companies like Planet Labs, Umbra, and HawkEye 360; GPS; miniature CubeSats for education and research; and military/defense satellites.

Loading next visibility...
Identifier
62640, 2025-009AH
Orbit
SSO
Country
Flag of UnknownUnknown / ARGN
Related business
None
Manufacturer
URUGUS S.A.
Mission
Operational Commercial Imaging
Bus & Motor
NEWSAT V, Unknown motor
Mass
41.5 kg wet, 38.5 kg dry
Launch date (UTC)
2025-01-14 (8 months ago)
Launch vehicle
FALCON 9
Launch site
Air Force Western Test Range (AFWTR)
Object type
Payload
Rocket body
Debris
Shape & HBR
Box, 0.4 m
Radar Cross Section
0.542 m², Medium (>0.1 m² and < 1m²)

Expand to show TLE details & history
Last TLE update: 12 hours ago

TLE from 12 hours ago
0 NUSAT-45 (UZMASAT-1)
1 62640U 25009AH  25258.50490490  .00008819  00000-0  38466-3 0  9993
2 62640  97.4196 337.5649 0002273 175.4077 184.7180 15.22393261 37023
Epoch: 2025-09-15T12:07Z
TLE epoch observation values (Epoch: 2025-09-15T12:07:03.783Z)
Latitude
-0.00008°
Longitude
161.09055°
Altitude
503.275 km
Speed
7.612 km/s
True Right ascension
22h 30m 15s
True Declination
0° 00' 00"
Sunlit
Object was in full shadow at epoch
Visualization orbit readout
Latitude
Unknown
Longitude
Unknown
Altitude
Unknown
Speed
Unknown
Apparent Right ascension
Unknown
Apparent Declination
Unknown
Sunlit
N/A
Visualization observer readout
Local Sidereal Time
17:03:29
Azimuth
Unknown
Elevation
Unknown
Doppler factor
Unknown
Orbital elements
Apogee altitude
497.15 km
Perigee altitude
494.025 km
Semi-major axis
6,873.724 km
Eccentricity
0.00023
Inclination
97.4196°
RAAN
337.5649°
Arg. of periapsis
175.4077°
True anomaly
184.71586°
Mean anomaly
184.718°
Eccentric anomaly
184.71693°
Mean motion
3.80851 °/min
Orbital period
94.53 mins
BSTAR
0.00038466
Loading maneuver chart data...
Computing Atmospheric mass density...
Loading historical data...
Loading historical data...
Loading historical data...
Loading historical data...
Loading historical data...
Loading historical data...
Loading historical data...

Documentation

Showing up to 5 results
|